This is the latest recevied weather packets stored in our database for station/object PY2SDN-13. If no packets are shown the sender has not sent any weather packets the latest 10 day(s).
| Time | Temp. | Humidity | Pressure | Rain* | Wind** | Luminosity | Snow |
|---|---|---|---|---|---|---|---|
| 1778259604 | 36.67° C | 26% | 1011.3 hPa | 0 mm | - | 0 W/m² | - |
| 1778258704 | 37.78° C | 26% | 1011.4 hPa | 0 mm | - | 0 W/m² | - |
| 1778257804 | 36.11° C | 26% | 1011.1 hPa | 0 mm | - | 0 W/m² | - |
| 1778256904 | 36.67° C | 26% | 1011.2 hPa | 0 mm | - | 0 W/m² | - |
| 1778256004 | 37.78° C | 26% | 1011.3 hPa | 0 mm | - | 0 W/m² | - |
| 1778255104 | 37.22° C | 26% | 1011.5 hPa | 0 mm | - | 0 W/m² | - |
| 1778254204 | 37.22° C | 26% | 1011.6 hPa | 0 mm | - | 0 W/m² | - |
| 1778253304 | 37.78° C | 26% | 1012.1 hPa | 0 mm | - | 0 W/m² | - |
| 1778252404 | 36.67° C | 26% | 1012.5 hPa | 0 mm | - | 0 W/m² | - |
| 1778251504 | 36.11° C | 26% | 1012.7 hPa | 0 mm | - | 0 W/m² | - |
| 1778250604 | 36.11° C | 26% | 1013.2 hPa | 0 mm | - | 0 W/m² | - |
| 1778249704 | 35.56° C | 26% | 1013.4 hPa | 0 mm | - | 0 W/m² | - |
| 1778248804 | 35° C | 26% | 1013.6 hPa | 0 mm | - | 0 W/m² | - |
| 1778247904 | 35° C | 26% | 1014 hPa | 0 mm | - | 0 W/m² | - |
| 1778247004 | 35° C | 26% | 1014.2 hPa | 0 mm | - | 0 W/m² | - |
| 1778246104 | 34.44° C | 26% | 1014.6 hPa | 0 mm | - | 0 W/m² | - |
| 1778245204 | 35° C | 26% | 1015 hPa | 0 mm | - | 0 W/m² | - |
| 1778244303 | 34.44° C | 26% | 1015.3 hPa | 0 mm | - | 0 W/m² | - |
| 1778243403 | 33.89° C | 26% | 1015.6 hPa | 0 mm | - | 0 W/m² | - |
| 1778242503 | 33.33° C | 26% | 1015.8 hPa | 0 mm | - | 0 W/m² | - |
| 1778241604 | 33.33° C | 26% | 1015.7 hPa | 0 mm | - | 0 W/m² | - |
| 1778240704 | 32.78° C | 26% | 1015.7 hPa | 0 mm | - | 0 W/m² | - |
| 1778239804 | 32.22° C | 26% | 1015.5 hPa | 0 mm | - | 0 W/m² | - |
| 1778238903 | 30° C | 26% | 1015.5 hPa | 0 mm | - | 0 W/m² | - |
| 1778238003 | 27.22° C | 26% | 1015.3 hPa | 0 mm | - | 0 W/m² | - |
* Rain latest hour (hover to see other rain measurements)
** Current wind speed in m/s (hover to see current wind gust speed)